TimeEDT,TemperatureF,Dew PointF,Humidity,Sea Level PressureIn,VisibilityMPH,Wind Direction,Wind SpeedMPH,Gust SpeedMPH,PrecipitationIn,Events,Conditions,WindDirDegrees,DateUTC
12:56 AM,39.9,37.9,93,29.66,10.0,SSE,4.6,-,N/A,,Mostly Cloudy,150,2013-04-01 04:56:00
1:56 AM,38.8,36.9,93,29.64,10.0,SE,3.5,-,N/A,,Clear,130,2013-04-01 05:56:00
2:56 AM,38.8,36.9,93,29.64,10.0,South,4.6,-,N/A,,Partly Cloudy,190,2013-04-01 06:56:00
4:56 AM,41.9,37.9,86,29.62,10.0,South,8.1,-,N/A,,Overcast,170,2013-04-01 08:56:00
5:56 AM,41.9,37.9,86,29.62,10.0,South,5.8,-,0.00,,Overcast,180,2013-04-01 09:56:00
6:56 AM,41.0,38.8,92,29.63,7.0,SSW,8.1,-,0.01,Rain,Rain,200,2013-04-01 10:56:00
7:56 AM,41.9,39.9,93,29.63,7.0,SW,8.1,-,0.01,Rain,Light Rain,220,2013-04-01 11:56:00
8:56 AM,41.0,36.9,85,29.65,10.0,NW,5.8,-,0.00,Rain,Light Rain,310,2013-04-01 12:56:00
9:56 AM,41.0,34.0,76,29.67,10.0,West,10.4,-,0.00,,Overcast,280,2013-04-01 13:56:00
10:35 AM,33.8,30.2,87,29.69,1.0,NNW,17.3,21.9,0.00,Snow,Light Snow,330,2013-04-01 14:35:00
10:56 AM,32.0,29.1,89,29.73,3.0,NNW,17.3,24.2,0.00,Snow,Light Snow,340,2013-04-01 14:56:00
11:56 AM,34.9,29.1,79,29.76,10.0,NW,15.0,-,0.00,,Overcast,310,2013-04-01 15:56:00
12:56 PM,37.9,25.2,60,29.78,10.0,WNW,21.9,27.6,N/A,,Mostly Cloudy,290,2013-04-01 16:56:00
1:56 PM,37.9,21.0,51,29.79,10.0,WNW,20.7,28.8,N/A,,Mostly Cloudy,290,2013-04-01 17:56:00
2:56 PM,36.9,15.1,41,29.83,10.0,WNW,25.3,32.2,N/A,,Mostly Cloudy,290,2013-04-01 18:56:00
3:56 PM,34.9,16.2,46,29.85,10.0,WNW,17.3,-,N/A,,Mostly Cloudy,290,2013-04-01 19:56:00
4:56 PM,36.9,16.2,43,29.86,10.0,WNW,25.3,31.1,N/A,,Mostly Cloudy,290,2013-04-01 20:56:00
5:56 PM,34.0,16.2,48,29.88,9.0,WNW,18.4,29.9,0.00,Snow,Light Snow Showers,300,2013-04-01 21:56:00
6:56 PM,31.1,19.0,61,29.91,10.0,WNW,11.5,-,0.00,Snow,Light Snow Showers,300,2013-04-01 22:56:00
7:56 PM,29.1,18.1,64,29.92,10.0,WNW,13.8,-,0.00,,Mostly Cloudy,290,2013-04-01 23:56:00
8:56 PM,28.0,19.0,69,29.94,10.0,WNW,11.5,-,0.00,,Mostly Cloudy,290,2013-04-02 00:56:00
9:56 PM,26.1,23.0,88,29.96,10.0,NW,11.5,-,0.00,Snow,Light Snow,320,2013-04-02 01:56:00
10:05 PM,26.6,23.0,86,29.93,3.0,NW,16.1,24.2,0.00,Snow,Light Snow,310,2013-04-02 02:05:00
10:14 PM,26.6,21.2,80,29.93,2.5,NW,17.3,-,0.00,Snow,Light Snow,310,2013-04-02 02:14:00
10:23 PM,24.8,23.0,93,29.92,2.5,WNW,16.1,-,0.00,Snow,Light Snow,300,2013-04-02 02:23:00
10:33 PM,24.8,23.0,93,29.92,2.0,NW,15.0,-,0.00,Snow,Light Snow,310,2013-04-02 02:33:00
10:44 PM,24.8,23.0,93,29.92,10.0,WNW,11.5,-,0.00,Snow,Light Snow,300,2013-04-02 02:44:00
10:56 PM,25.2,22.1,88,29.96,10.0,NW,9.2,-,0.00,,Overcast,310,2013-04-02 02:56:00
11:30 PM,24.8,21.2,86,29.91,10.0,NW,11.5,-,0.00,Snow,Light Snow,310,2013-04-02 03:30:00
11:38 PM,24.8,21.2,86,29.92,3.0,NW,18.4,28.8,0.00,Snow,Light Snow,310,2013-04-02 03:38:00
11:45 PM,24.8,21.2,86,29.91,3.0,WNW,18.4,28.8,0.00,Snow,Light Snow,300,2013-04-02 03:45:00
11:56 PM,25.2,19.0,78,29.95,8.0,WNW,19.6,26.5,0.00,Snow,Light Snow,290,2013-04-02 03:56:00